Flag for Russia Weather past 2 weeks in Yuzhno-Sakhalinsk, Russia

30 °F

Scattered clouds.

Feels Like: 30 °F
Forecast: 9 / 25 °F
Wind: No wind

Location: Yuzhno Airport-Sakhalinsk

Current Time: Nov 30, 2015 at 1:18:55 PM

Latest Report: Nov 30, 2015 at 12:30 PM

Visibility: N/A

Pressure: 30.07 "Hg

Humidity: 75%

Dew point: 23 °F

Location of Yuzhno-SakhalinskLocation

Historic Weather in Yuzhno-Sakhalinsk — Graph


Yuzhno-Sakhalinsk temperature yesterday

Maximum temperature yesterday: 30 °F (at 1:00 PM)
Minimum temperature yesterday: 19 °F (at 2:30 AM)
Average temperature yesterday: 24 °F

Past Weeks' High & Low Weather Summary

High55 °F (Nov 15, 2:30 PM)100% (Nov 15, 6:00 PM)30.45 "Hg (Nov 15, 6:00 PM)
Low0 °F (Nov 25, 10:00 PM)26% (Nov 16, 2:30 PM)29.56 "Hg (Nov 27, 11:00 PM)
Average26 °F78%30.11 "Hg
* Reported Nov 15 12:00 Noon — Nov 30 12:00 Noon, Yuzhno-Sakhalinsk, Weather by CustomWeather, © 2015

Note: Actual official high and low records may vary slightly from our data, if they occured in-between our weather recording intervals... More about our weather records


Yuzhno-Sakhalinsk weather history for previous 24 hours

Time TempWeatherWind HumidityBarometerVisibility
12:00 PM
Mon, Nov 30
27 °FScattered clouds.1 mph86%30.07 "HgN/A
11:30 AM25 °FScattered clouds.1 mph93%30.09 "HgN/A
10:30 AM23 °FPassing clouds.No wind100%30.12 "HgN/A
10:00 AM21 °FPassing clouds.1 mph100%30.12 "HgN/A
9:30 AM21 °FPassing clouds.3 mph93%30.12 "HgN/A
9:00 AM19 °FPassing clouds.1 mph93%30.12 "HgN/A
8:30 AM19 °FPassing clouds.No wind93%30.12 "HgN/A
8:00 AM19 °FSnow flurries. Scattered clouds.1 mph93%30.15 "HgN/A
7:30 AM18 °FClear.3 mph93%30.15 "HgN/A
7:00 AM18 °FClear.3 mph93%30.15 "HgN/A
6:30 AM16 °FClear.3 mph93%30.15 "HgN/A
6:00 AM16 °FClear.1 mph100%30.15 "HgN/A
5:30 AM16 °FClear.3 mph93%30.18 "HgN/A
5:00 AM16 °FClear.3 mph93%30.18 "HgN/A
4:00 AM14 °FClear.1 mph100%30.18 "HgN/A
3:00 AM16 °FClear.3 mph93%30.18 "HgN/A
2:00 AM14 °FClear.3 mph92%30.18 "Hg5 mi
1:00 AM19 °FIce fog.6 mph93%30.18 "Hg1 mi
12:00 AM18 °FIce fog.3 mph93%30.21 "Hg2 mi
11:00 PM
Sun, Nov 29
21 °FSnow flurries. Ice fog.1 mph100%30.21 "Hg2 mi
10:00 PM25 °FSnow flurries. Ice fog.1 mph93%30.21 "Hg2 mi
9:30 PM25 °FSnow flurries. Ice fog.1 mph93%30.21 "Hg2 mi
9:00 PM27 °FSnow flurries. Ice fog.3 mph86%30.21 "Hg2 mi
8:30 PM25 °FSnow flurries. Ice fog.1 mph93%30.21 "Hg2 mi
7:30 PM25 °FSnow flurries. Passing clouds.1 mph93%30.21 "Hg4 mi
7:00 PM23 °FSnow flurries. Passing clouds.1 mph86%30.21 "Hg4 mi
6:30 PM25 °FPassing clouds.1 mph86%30.18 "Hg4 mi
6:00 PM23 °FPassing clouds.1 mph93%30.18 "HgN/A
4:30 PM25 °FPassing clouds.No wind86%30.18 "HgN/A
4:00 PM28 °FPassing clouds.3 mph74%30.18 "HgN/A
3:00 PM28 °FPassing clouds.3 mph74%30.15 "HgN/A
2:30 PM28 °FPassing clouds.6 mph74%30.15 "HgN/A
2:00 PM30 °FPassing clouds.6 mph75%30.15 "HgN/A
1:30 PM28 °FPassing clouds.6 mph80%30.15 "HgN/A
1:00 PM30 °FPassing clouds.6 mph75%30.15 "HgN/A
Weather by CustomWeather, © 2015

See weather overviewHow to use our weather pages